Location: Doschendorf
(50.0069°N, 11.0602°E)
Time: 10:52:25
(UTC+00:00)

NOAA 11 - Pass Details

Date: 17 November 2019
Orbit: 834 x 849 km, 98.4° (Epoch: 10 December)

Event Time Altitude Azimuth Distance (km) Brightness Sun altitude
Rises 17:35:24 0° 154° (SSE) 3,370 7.1 -20.0°
Reaches altitude 10° 17:37:45 10° 152° (SSE) 2,441 6.4 -20.3°
Maximum altitude 17:43:07 67° 71° (ENE) 905 4.1 -21.2°
Drops below altitude 10° 17:48:31 10° 350° (N) 2,463 6.7 -22.1°
Sets 17:50:54 0° 348° (NNW) 3,403 7.5 -22.4°
